Wind_Speed
20 21 19 18 18 17 16 15 15 14 15 16 15 14 13 12 13 13 13 14 15 15 15 15 15 15 15 15 15 16 15 14 15 16 17 17 17 17 17 16 16 17 18 18
20 20 19 19 18 18 16 15 14 15 16 17 16 15 14 14 13 13 13 14 14 16 15 15 15 15 15 15 16 15 15 15 15 16 16 16 16 16 16 16 16 17 18 18
20 19 19 19 18 17 16 15 14 15 16 17 17 16 15 15 14 13 13 13 14 15 15 15 15 15 15 15 15 15 14 15 15 16 16 16 16 16 16 17 17 17 18 18
19 19 20 19 18 17 15 15 15 16 17 17 18 17 14 14 13 12 12 13 14 15 15 15 15 15 16 16 15 15 15 16 15 16 16 16 16 16 16 17 17 18 18 19
18 19 20 19 18 17 15 16 16 17 18 19 18 18 13 13 12 12 13 14 15 15 15 15 15 16 16 16 16 16 16 16 16 16 16 15 16 17 17 17 18 19 20 20
18 19 19 19 18 17 16 16 16 16 17 18 17 17 14 14 14 13 14 14 15 15 15 15 16 17 18 16 16 16 16 16 16 16 15 16 17 17 18 18 19 20 20 20
17 18 19 18 18 17 17 16 16 16 16 16 16 16 14 14 14 14 15 15 16 16 15 16 17 18 18 16 16 16 15 15 15 15 16 17 17 17 17 18 19 20 20 20
17 18 18 18 18 16 16 17 17 18 16 16 16 16 14 13 14 14 15 15 15 15 15 17 17 17 17 16 16 16 15 15 16 16 16 16 16 16 16 18 19 20 20 19
17 17 17 18 17 17 17 18 18 19 18 17 17 16 15 13 13 13 14 14 14 15 15 16 16 17 17 16 17 15 14 15 15 15 15 16 16 16 17 18 18 19 19 19
17 17 17 18 19 19 18 18 18 19 19 19 17 16 15 14 13 13 14 14 15 15 15 16 16 16 16 17 16 15 14 15 14 14 15 15 16 16 17 17 17 18 18 18
17 17 17 19 20 20 20 19 20 20 20 20 18 16 15 15 14 15 15 15 15 15 14 15 15 16 16 16 16 15 15 15 14 15 15 16 15 15 14 16 16 17 17 17
18 19 19 20 20 21 21 21 21 20 20 19 18 16 16 16 16 16 16 16 16 15 15 15 15 15 15 15 15 15 15 15 15 15 15 15 14 14 14 15 16 16 16 17
19 21 20 20 21 21 21 21 21 21 21 20 19 17 17 17 18 17 16 16 16 16 16 15 15 15 15 14 14 14 15 14 14 14 14 14 13 14 14 15 16 16 16 17
22 22 21 21 21 21 22 21 21 22 21 20 19 18 18 19 18 18 17 17 16 16 16 16 15 15 15 15 15 14 14 14 14 14 14 14 13 14 14 14 15 16 16 16
22 23 22 21 21 22 22 22 22 23 22 21 20 20 19 19 19 18 18 17 17 17 17 16 16 16 16 15 15 14 14 14 14 13 13 14 14 14 14 14 15 15 15 16
23 23 22 21 21 22 23 22 23 23 22 22 22 22 21 20 20 19 18 18 18 17 17 16 16 16 16 16 15 15 14 13 13 13 13 13 13 14 15 14 15 15 15 16
24 24 24 23 23 23 24 23 23 23 23 23 23 21 21 20 20 20 19 19 18 17 16 16 16 16 16 15 15 14 13 12 12 13 13 13 13 14 15 15 15 15 15 15
24 25 25 25 24 25 24 24 24 24 24 23 23 22 22 21 21 21 20 19 18 18 17 17 17 17 16 16 15 14 13 13 14 14 13 13 14 14 15 15 15 15 15 15
25 26 26 26 26 27 26 25 24 23 23 23 23 22 23 22 21 22 21 20 19 19 18 18 17 17 16 16 15 15 15 15 15 15 15 15 14 15 15 14 15 16 16 16
26 26 27 27 27 27 26 26 26 25 24 23 23 23 23 23 23 23 23 22 20 20 20 19 18 18 18 17 17 17 16 16 16 16 16 16 16 15 15 15 15 15 16 16
26 27 27 27 27 27 26 26 26 26 24 24 24 24 23 24 24 24 24 23 23 22 22 20 19 19 20 19 19 19 19 18 17 16 17 17 16 16 15 15 15 15 15 15
26 27 27 27 27 26 25 25 25 25 24 24 24 24 25 25 25 24 25 25 25 24 24 23 22 21 21 21 21 20 21 19 18 17 17 16 17 17 16 16 16 15 15 15
27 27 27 27 27 26 25 24 25 25 24 24 25 26 26 26 26 26 26 26 25 25 25 24 23 23 23 23 22 22 22 22 19 17 17 16 17 16 16 17 16 15 15 15
27 28 28 28 28 28 27 26 26 26 26 26 26 27 27 26 26 26 26 26 26 26 25 25 24 24 24 24 24 24 23 22 21 19 18 18 18 17 17 17 16 16 15 15
28 28 28 29 29 28 28 27 27 27 27 27 27 27 27 27 26 26 27 27 27 26 26 25 25 25 25 25 25 25 24 23 22 20 19 19 19 17 17 17 16 16 15 16
27 28 28 28 28 28 27 27 27 27 27 27 27 26 26 25 25 24 24 24 25 25 24 24 24 24 24 24 25 25 25 24 22 21 20 19 19 18 17 17 17 17 16 16
Wind_Direction
229 225 224 228 233 237 244 248 251 252 257 259 256 262 268 274 278 282 282 287 291 296 298 301 307 311 311 308 306 304 305 308 310 308 308 307 305 306 306 309 311 310 306 302
226 223 224 228 234 239 245 249 254 256 259 263 264 265 271 278 281 281 281 282 288 294 298 295 301 305 307 307 310 307 306 305 307 307 307 305 307 306 305 306 307 309 307 304
225 221 224 228 233 239 245 250 256 260 264 268 269 271 272 276 279 281 281 286 288 294 297 296 299 300 305 308 309 311 309 307 308 307 306 305 305 305 305 306 307 308 307 305
223 221 224 226 231 240 245 251 259 262 266 268 271 273 268 272 278 278 279 284 290 294 294 297 300 301 304 307 309 310 306 304 304 306 306 306 306 308 309 309 307 308 309 307
220 221 225 228 232 239 245 252 261 266 266 268 271 270 270 272 276 279 279 285 289 293 295 297 298 299 302 302 304 307 307 308 305 305 307 305 305 305 306 309 310 312 312 313
222 225 229 230 233 240 245 252 260 265 265 265 265 267 270 269 274 279 284 287 288 290 294 297 300 300 302 302 304 306 306 307 305 303 307 308 307 306 307 309 311 313 313 313
223 226 229 230 235 240 244 251 257 263 264 264 263 267 273 274 277 278 284 287 288 289 292 296 301 300 299 301 304 305 306 307 306 305 307 309 309 310 311 312 313 314 314 313
227 228 231 234 238 243 245 249 256 262 265 264 263 267 273 278 279 281 284 284 286 290 293 296 298 300 300 300 302 303 305 307 307 307 308 309 311 311 312 314 315 316 316 314
233 232 233 235 238 243 247 248 254 262 264 269 269 272 272 277 283 284 284 285 288 291 292 294 297 299 299 300 303 304 307 307 308 308 307 309 309 311 311 314 316 317 317 317
240 239 236 238 240 243 245 249 255 261 266 268 270 274 277 280 284 288 287 288 292 293 295 294 294 297 298 300 301 302 304 306 308 308 309 311 310 310 312 315 318 320 321 323
241 243 241 242 243 245 246 250 256 261 265 268 271 275 278 281 283 284 284 287 293 293 292 293 293 296 301 301 300 300 303 308 308 306 309 312 314 313 314 319 320 321 322 322
241 244 243 243 246 246 250 252 256 259 267 270 272 277 276 278 281 281 283 288 288 287 285 290 293 297 303 302 301 302 303 307 308 308 309 313 316 316 316 319 322 323 322 322
243 246 249 246 245 247 249 250 253 258 265 269 273 277 277 275 278 282 283 285 286 285 286 290 293 296 301 301 301 304 306 305 307 309 310 312 315 317 318 320 322 323 322 322
244 247 250 251 251 252 251 254 256 259 264 268 270 273 275 273 276 279 282 283 282 282 284 288 292 296 297 298 299 302 306 306 307 309 311 313 314 315 318 320 321 322 322 322
247 248 250 252 252 253 255 258 259 262 266 268 268 271 274 273 276 278 280 282 279 280 282 286 290 295 299 298 300 303 305 305 307 308 310 313 317 319 318 319 320 319 320 322
251 252 250 252 254 253 253 255 258 262 265 267 269 270 271 273 275 276 276 278 278 278 280 285 288 291 297 300 299 303 306 305 304 305 307 311 313 317 320 324 326 321 320 322
250 251 252 253 252 254 255 257 259 262 265 267 268 269 270 271 273 273 273 276 278 276 277 280 285 290 292 292 297 300 301 302 303 302 303 306 310 314 318 322 323 321 321 323
251 252 254 255 256 257 259 262 265 265 265 264 264 265 266 268 269 269 270 274 276 274 275 276 279 284 286 289 291 294 295 299 300 299 300 303 305 310 315 317 319 320 322 326
254 254 256 258 260 262 262 266 268 267 265 264 264 264 264 265 266 267 268 270 273 273 273 273 275 277 279 282 284 286 291 296 298 297 297 300 302 307 312 313 315 316 320 324
254 254 256 258 260 262 264 265 267 266 266 266 265 264 263 264 266 268 268 268 269 270 272 273 272 274 276 278 280 280 283 290 294 295 294 297 299 302 306 308 311 313 317 320
254 254 255 257 260 262 264 265 265 265 267 266 265 263 264 265 265 267 268 269 268 271 273 273 273 271 272 274 276 277 278 282 287 291 290 293 296 297 301 304 307 311 317 320
257 258 257 258 260 261 264 265 265 266 265 265 265 265 264 265 264 265 267 268 269 269 271 272 271 270 270 272 273 274 276 278 282 286 290 292 293 294 294 297 302 307 312 316
258 258 259 258 259 260 263 265 265 265 265 265 265 265 263 263 265 266 268 267 267 268 269 269 269 269 270 270 272 274 276 278 278 282 286 289 291 292 293 296 298 302 307 309
256 258 258 259 258 259 261 262 263 264 265 266 267 264 263 262 262 265 267 267 266 266 267 268 267 267 267 269 272 273 275 274 275 279 284 287 288 289 292 293 296 299 302 305
255 257 259 259 259 260 260 263 264 266 265 264 265 263 262 261 262 264 265 265 266 267 266 267 267 267 266 268 272 273 273 275 275 275 277 281 283 284 286 290 292 294 297 301
255 258 259 259 258 259 261 262 265 265 264 264 265 264 264 265 264 266 269 269 268 270 270 268 269 270 270 270 270 272 273 273 273 274 276 280 280 280 283 286 288 290 293 296
Height
5827 5831 5834 5837 5839 5841 5842 5843 5844 5845 5845 5845 5845 5845 5846 5846 5846 5846 5846 5845 5844 5843 5842 5840 5839 5837 5835 5834 5833 5831 5830 5828 5826 5825 5823 5821 5819 5817 5815 5813 5811 5809 5807 5805
5825 5829 5832 5833 5836 5838 5839 5840 5841 5842 5842 5842 5842 5843 5843 5843 5842 5843 5842 5842 5841 5840 5839 5837 5836 5834 5833 5832 5830 5828 5826 5825 5822 5821 5820 5818 5815 5813 5811 5809 5807 5805 5803 5801
5822 5827 5828 5830 5833 5835 5837 5838 5839 5839 5839 5839 5839 5840 5840 5840 5840 5839 5839 5838 5838 5837 5835 5834 5833 5832 5830 5829 5827 5825 5823 5821 5819 5817 5815 5813 5811 5809 5807 5805 5803 5801 5798 5796
5820 5823 5825 5827 5830 5832 5834 5836 5836 5836 5836 5836 5837 5836 5838 5837 5836 5836 5836 5836 5835 5834 5832 5831 5830 5829 5827 5826 5824 5821 5819 5817 5815 5813 5811 5809 5807 5805 5803 5801 5799 5796 5794 5791
5817 5820 5822 5825 5828 5829 5831 5832 5832 5832 5832 5833 5833 5833 5835 5834 5834 5833 5833 5833 5832 5831 5830 5829 5827 5826 5824 5822 5820 5818 5815 5813 5812 5810 5807 5805 5803 5801 5799 5797 5794 5792 5789 5786
5815 5817 5819 5822 5824 5826 5827 5829 5829 5829 5829 5830 5831 5830 5832 5832 5831 5831 5831 5830 5829 5828 5827 5826 5824 5822 5820 5818 5816 5814 5812 5810 5808 5806 5804 5802 5800 5797 5794 5792 5790 5787 5784 5782
5812 5814 5816 5819 5821 5823 5824 5826 5826 5826 5826 5827 5828 5828 5829 5829 5829 5828 5828 5827 5826 5825 5824 5823 5821 5819 5816 5814 5812 5810 5808 5806 5804 5802 5800 5798 5796 5793 5790 5788 5786 5783 5780 5777
5809 5812 5814 5816 5818 5820 5821 5823 5824 5824 5824 5825 5825 5825 5827 5827 5826 5825 5825 5824 5823 5822 5821 5819 5817 5815 5813 5811 5809 5807 5804 5803 5800 5798 5797 5794 5792 5789 5787 5784 5781 5779 5776 5773
5807 5810 5812 5813 5815 5817 5818 5819 5820 5821 5821 5821 5822 5823 5824 5824 5823 5822 5822 5821 5820 5819 5817 5816 5814 5812 5809 5807 5805 5803 5801 5799 5797 5795 5792 5790 5787 5785 5783 5780 5777 5775 5772 5769
5804 5806 5808 5809 5811 5813 5815 5816 5817 5817 5817 5817 5818 5819 5821 5820 5820 5819 5819 5818 5817 5815 5814 5812 5810 5808 5806 5804 5802 5799 5797 5795 5793 5791 5789 5786 5784 5782 5779 5776 5774 5771 5768 5765
5801 5803 5805 5806 5807 5809 5811 5812 5812 5813 5813 5814 5814 5818 5817 5817 5816 5816 5815 5814 5813 5812 5810 5809 5807 5804 5802 5800 5798 5795 5793 5791 5789 5787 5785 5783 5780 5778 5776 5773 5771 5768 5765 5762
5798 5799 5800 5802 5804 5805 5806 5807 5808 5809 5810 5810 5810 5815 5813 5812 5812 5811 5811 5810 5809 5808 5806 5805 5803 5801 5798 5796 5794 5792 5790 5787 5785 5783 5781 5779 5777 5775 5773 5770 5768 5765 5762 5759
5794 5795 5796 5798 5801 5801 5801 5802 5803 5804 5805 5805 5806 5810 5808 5807 5807 5807 5806 5806 5805 5804 5803 5801 5799 5797 5795 5792 5790 5788 5786 5784 5782 5780 5778 5776 5774 5772 5770 5767 5765 5762 5759 5757
5789 5790 5792 5794 5795 5796 5796 5798 5799 5799 5800 5800 5802 5803 5803 5803 5802 5802 5802 5801 5800 5799 5798 5797 5795 5793 5791 5789 5787 5785 5783 5781 5779 5777 5775 5773 5771 5769 5767 5764 5762 5759 5757 5754
5784 5785 5786 5788 5789 5790 5791 5792 5793 5794 5795 5796 5797 5797 5798 5798 5797 5797 5797 5796 5796 5795 5794 5792 5791 5789 5787 5785 5784 5782 5780 5778 5776 5775 5773 5771 5769 5767 5764 5762 5759 5756 5754 5751
5778 5779 5781 5782 5783 5784 5785 5787 5788 5789 5789 5790 5791 5792 5792 5792 5792 5791 5791 5791 5791 5790 5789 5788 5787 5785 5783 5782 5780 5778 5776 5775 5773 5772 5770 5769 5767 5764 5762 5759 5756 5754 5751 5748
5772 5773 5775 5776 5777 5778 5779 5781 5782 5783 5783 5784 5785 5787 5786 5786 5786 5786 5785 5786 5785 5785 5784 5783 5782 5781 5779 5778 5776 5775 5773 5772 5770 5769 5767 5766 5764 5762 5759 5756 5754 5751 5748 5745
5766 5767 5768 5769 5772 5772 5776 5775 5776 5776 5777 5778 5778 5779 5780 5780 5780 5780 5780 5780 5780 5780 5779 5778 5777 5776 5775 5774 5772 5771 5770 5769 5767 5766 5764 5763 5761 5758 5756 5754 5751 5748 5745 5743
5760 5761 5762 5763 5764 5765 5768 5768 5768 5769 5770 5771 5772 5772 5773 5773 5773 5774 5774 5774 5774 5774 5774 5773 5772 5771 5770 5769 5768 5767 5766 5765 5764 5762 5761 5759 5757 5755 5753 5750 5748 5746 5743 5740
5753 5754 5756 5756 5757 5759 5761 5761 5761 5763 5763 5764 5764 5765 5766 5766 5767 5768 5767 5767 5767 5767 5767 5767 5767 5766 5765 5764 5763 5762 5762 5761 5760 5758 5757 5755 5753 5751 5749 5747 5745 5742 5739 5737
5746 5747 5748 5749 5750 5751 5753 5753 5754 5756 5758 5757 5757 5758 5758 5759 5760 5760 5760 5760 5760 5760 5760 5760 5760 5760 5760 5759 5758 5757 5756 5755 5755 5753 5752 5750 5749 5747 5745 5743 5741 5738 5736 5734
5738 5739 5741 5742 5743 5747 5746 5746 5748 5748 5748 5749 5749 5750 5750 5751 5751 5752 5752 5752 5753 5753 5754 5754 5754 5754 5753 5753 5752 5752 5751 5750 5749 5748 5747 5745 5744 5742 5740 5739 5737 5735 5732 5730
5730 5732 5733 5735 5738 5738 5739 5739 5740 5740 5741 5741 5742 5742 5742 5743 5744 5744 5744 5745 5745 5746 5746 5746 5747 5747 5747 5746 5746 5745 5745 5744 5743 5742 5741 5740 5739 5737 5736 5734 5733 5731 5729 5727
5722 5724 5725 5727 5728 5730 5731 5732 5732 5732 5733 5733 5733 5734 5735 5735 5736 5736 5736 5737 5737 5738 5738 5739 5739 5739 5740 5739 5739 5738 5738 5737 5737 5736 5735 5734 5733 5732 5731 5730 5728 5727 5725 5723
5715 5716 5717 5719 5720 5722 5723 5724 5724 5724 5725 5725 5725 5726 5726 5727 5727 5728 5728 5729 5729 5730 5730 5731 5731 5731 5732 5731 5731 5731 5731 5731 5730 5730 5728 5728 5727 5726 5726 5724 5723 5722 5721 5719
5707 5709 5710 5711 5712 5713 5715 5715 5716 5716 5716 5717 5717 5718 5718 5718 5719 5720 5720 5721 5721 5722 5722 5722 5723 5723 5723 5724 5724 5724 5724 5723 5723 5723 5723 5722 5721 5720 5720 5719 5718 5717 5716 5715